Sarajevo, Bosnia and Herzegovina

12:21 PM CET on December 11, 2017 (GMT +0100)
Sarajevo

Weather History for LQSA - December, 2017

Change the Weather History Date:

Thursday, December 7, 2017

  Actual Average Record
Temperature  
Mean Temperature 24 °F -  
Max Temperature 28 °F - - ()
Min Temperature 21 °F - - ()
Degree Days  
Heating Degree Days 40    
Moisture  
Dew Point 22 °F    
Average Humidity 98    
Maximum Humidity 100    
Minimum Humidity 93    
Precipitation  
Precipitation 0.00 in - - ()
Sea Level Pressure  
Sea Level Pressure 30.38 in    
Wind  
Wind Speed 2 mph ()    
Max Wind Speed 4 mph    
Max Gust Speed -    
Visibility 0.3 miles    
Events Fog    
T = Trace of Precipitation, MM = Missing Value Source: Averaged Metar Reports

Daily Weather History Graph

Daily Weather History Graph

Search for Another Location

Airport or City:

Trip Planner

Search our weather history database for the weather conditions in past years. The results will help you decide how hot, cold, wet, or windy it might be!

Date:

Astronomy

Dec. 07, 2017 Rise Set
Actual Time 7:07 AM CET 4:09 PM CET
Civil Twilight 6:34 AM CET 4:41 PM CET
Nautical Twilight 5:58 AM CET 5:17 PM CET
Astronomical Twilight 5:23 AM CET 5:52 PM CET
Moon 8:38 PM CET (12/7) 10:29 AM CET (12/7)
Length of Visible Light 10h 07m
Length of Day
9h 02m
Waning Gibbous, 80% of the Moon is Illuminated
Dec 7
Waning Gibbous
Dec 10
Last Quarter
Dec 18
New
Dec 26
First Quarter
Jan 2
Full

Hourly Weather History & Observations

Time (CET) Temp. Windchill Dew Point Humidity Pressure Visibility Wind Dir Wind Speed Gust Speed Precip Events Conditions
12:00 AM 24.8 °F - 24.8 °F 100% 30.45 in 0.1 mi Variable 1.2 mph - N/A Fog Light Freezing Fog
1:00 AM 24.8 °F - 24.8 °F 100% 30.45 in 0.1 mi Variable 1.2 mph - N/A Fog Light Freezing Fog
2:00 AM 24.8 °F - 23.0 °F 93% 30.42 in 0.1 mi SE 2.3 mph - N/A Fog Light Freezing Fog
3:00 AM 23.0 °F 18.4 °F 23.0 °F 100% 30.42 in 0.2 mi South 3.5 mph - N/A Fog Light Freezing Fog
4:00 AM 23.0 °F - 23.0 °F 100% 30.42 in 0.2 mi Variable 2.3 mph - N/A Fog Light Freezing Fog
5:00 AM 23.0 °F - 21.2 °F 93% 30.42 in 0.2 mi Variable 2.3 mph - N/A Fog Light Freezing Fog
5:30 AM 23.0 °F - 21.2 °F 93% 30.42 in 0.2 mi Variable 2.3 mph - N/A Fog Light Freezing Fog
6:00 AM 21.2 °F 16.4 °F 21.2 °F 100% 30.42 in 0.2 mi South 3.5 mph - N/A Fog Light Freezing Fog
6:30 AM 21.2 °F 16.4 °F 21.2 °F 100% 30.42 in 0.2 mi South 3.5 mph - N/A Fog Light Freezing Fog
7:00 AM 21.2 °F - 21.2 °F 100% 30.42 in 0.2 mi Variable 2.3 mph - N/A Fog Light Freezing Fog
7:30 AM 21.2 °F - 21.2 °F 100% 30.42 in 0.2 mi Variable 2.3 mph - N/A Fog Light Freezing Fog
8:00 AM 21.2 °F - 21.2 °F 100% 30.45 in 0.2 mi Variable 2.3 mph - N/A Fog Light Freezing Fog
8:30 AM 21.2 °F - 21.2 °F 100% 30.45 in 0.1 mi Variable 2.3 mph - N/A Fog Light Freezing Fog
9:00 AM 21.2 °F - 21.2 °F 100% 30.45 in 0.1 mi Variable 2.3 mph - N/A Fog Light Freezing Fog
9:30 AM 21.2 °F - 21.2 °F 100% 30.45 in 0.2 mi Variable 2.3 mph - N/A Fog Light Freezing Fog
10:30 AM 23.0 °F - 21.2 °F 93% 30.42 in 0.4 mi Variable 2.3 mph - N/A Fog Light Freezing Fog
11:00 AM 23.0 °F - 23.0 °F 100% 30.42 in 0.7 mi Variable 2.3 mph - N/A   Mostly Cloudy
11:30 AM 24.8 °F - 23.0 °F 93% 30.42 in 0.6 mi Variable 1.2 mph - N/A   Mostly Cloudy
12:00 PM 26.6 °F - 24.8 °F 93% 30.39 in 0.7 mi Variable 1.2 mph - N/A   Mostly Cloudy
12:30 PM 28.4 °F - 26.6 °F 93% 30.39 in 0.7 mi Variable 1.2 mph - N/A   Mostly Cloudy
1:00 PM 28.4 °F - 28.4 °F 100% 30.36 in 0.7 mi Variable 1.2 mph - N/A   Mostly Cloudy
1:30 PM 26.6 °F - 24.8 °F 93% 30.36 in 0.7 mi NW 2.3 mph - N/A   Scattered Clouds
2:30 PM 26.6 °F - 26.6 °F 100% 30.33 in 0.7 mi Variable 2.3 mph - N/A   Partly Cloudy
3:00 PM 24.8 °F - 24.8 °F 100% 30.33 in 0.7 mi Variable 2.3 mph - N/A   Mist
3:30 PM 24.8 °F 20.5 °F 23.0 °F 93% 30.33 in 0.4 mi NNW 3.5 mph - N/A Fog Light Freezing Fog
4:00 PM 23.0 °F - 21.2 °F 93% 30.33 in 0.2 mi Variable 2.3 mph - N/A Fog Light Freezing Fog
4:30 PM 21.2 °F - 21.2 °F 100% 30.33 in 0.1 mi Variable 1.2 mph - N/A Fog Light Freezing Fog
5:00 PM 21.2 °F - 21.2 °F 100% 30.33 in 0.2 mi Variable 1.2 mph - N/A Fog Light Freezing Fog
6:00 PM 23.0 °F - 23.0 °F 100% 30.33 in 0.2 mi Variable 1.2 mph - N/A Fog Light Freezing Fog
6:30 PM 23.0 °F - 21.2 °F 93% 30.33 in 0.1 mi SSW 2.3 mph - N/A Fog Light Freezing Fog
7:00 PM 23.0 °F - 21.2 °F 93% 30.33 in 0.1 mi Variable 1.2 mph - N/A Fog Light Freezing Fog
7:30 PM 21.2 °F - 21.2 °F 100% 30.33 in 0.1 mi Variable 1.2 mph - N/A Fog Light Freezing Fog
8:00 PM 21.2 °F - 21.2 °F 100% 30.33 in 0.1 mi Variable 1.2 mph - N/A Fog Light Freezing Fog
8:30 PM 21.2 °F - 21.2 °F 100% 30.33 in 0.1 mi Variable 1.2 mph - N/A Fog Light Freezing Fog
9:00 PM 21.2 °F - 21.2 °F 100% 30.33 in 0.1 mi Variable 1.2 mph - N/A Fog Light Freezing Fog
9:30 PM 21.2 °F - 21.2 °F 100% 30.33 in 0.1 mi Variable 1.2 mph - N/A Fog Light Freezing Fog
10:00 PM 21.2 °F - 21.2 °F 100% 30.33 in 0.1 mi Variable 1.2 mph - N/A Fog Light Freezing Fog
11:00 PM 21.2 °F - 21.2 °F 100% 30.33 in 0.1 mi Variable 1.2 mph - N/A Fog Light Freezing Fog